Location: Peebles
(55.6412°N, 3.1714°W)
Time: 19:00:45
(UTC+00:00)

NOAA 16 DEB - Visible Passes

Search period start: 28 November 2022 00:00
Search period end: 08 December 2022 00:00
Orbit: 829 x 867 km, 98.7° (Epoch: 27 November)

Date Brightness Start Highest point End Pass type
(mag) Time Alt. Az. Time Alt. Az. Time Alt. Az.
28 Nov ? 17:58:09 12° NNE 17:58:09 12° NNE 17:59:08 10° NNE visible
28 Nov ? 19:40:05 17° N 19:40:05 17° N 19:41:27 10° N visible
28 Nov ? 21:22:02 11° NNW 21:22:02 11° NNW 21:22:15 10° NNW visible
29 Nov ? 17:45:22 10° NNE 17:45:22 10° NNE 17:45:46 10° NNE visible
29 Nov ? 19:27:19 17° N 19:27:19 17° N 19:28:40 10° N visible
29 Nov ? 21:09:16 12° NNW 21:09:16 12° NNW 21:09:38 10° NNW visible
30 Nov ? 19:14:32 16° N 19:14:32 16° N 19:15:51 10° N visible
30 Nov ? 20:56:29 13° NNW 20:56:29 13° NNW 20:56:59 10° NNW visible
01 Dec ? 19:01:45 16° N 19:01:45 16° N 19:03:02 10° N visible
01 Dec ? 20:43:41 13° NNW 20:43:41 13° NNW 20:44:18 10° NNW visible
02 Dec ? 18:48:57 15° NNE 18:48:57 15° NNE 18:50:11 10° N visible
02 Dec ? 20:30:54 14° NNW 20:30:54 14° NNW 20:31:36 10° NNW visible
03 Dec ? 18:36:08 14° NNE 18:36:08 14° NNE 18:37:17 10° N visible
03 Dec ? 20:18:05 14° NNW 20:18:05 14° NNW 20:18:53 10° NNW visible
04 Dec ? 18:23:21 13° NNE 18:23:21 13° NNE 18:24:21 10° N visible
04 Dec ? 20:05:17 15° N 20:05:17 15° N 20:06:08 10° NNW visible
05 Dec ? 18:10:32 12° NNE 18:10:32 12° NNE 18:11:20 10° N visible
05 Dec ? 19:52:28 15° N 19:52:28 15° N 19:53:22 10° N visible
06 Dec ? 17:57:42 11° NNE 17:57:42 11° NNE 17:58:12 10° NNE visible
06 Dec ? 19:39:39 15° N 19:39:39 15° N 19:40:34 10° N visible
07 Dec ? 19:26:49 15° N 19:26:49 15° N 19:27:46 10° N visible
